Location: Freistadt
(48.5112°N, 14.5013°E)
Time: 10:41:07
(UTC+02:00)

MOZHAYETS 4 - Pass Details

Date: 06 April 2023
Orbit: 657 x 675 km, 98.2° (Epoch: 03 June)

Event Time Altitude Azimuth Distance (km) Brightness Sun altitude
Exits shadow 04:14:47 38° 287° (WNW) 1,012 8.3 -21.2°
Drops below altitude 10° 04:18:22 10° 333° (NNW) 2,093 10.4 -20.8°
Sets 04:20:43 0° 340° (NNW) 3,014 11.3 -20.5°
